TimeCST,TemperatureF,Dew PointF,Humidity,Sea Level PressureIn,VisibilityMPH,Wind Direction,Wind SpeedMPH,Gust SpeedMPH,PrecipitationIn,Events,Conditions,WindDirDegrees,DateUTC
12:15 AM,30.2,28.4,93,30.36,10.0,Calm,Calm,-,N/A,,Clear,0,2013-01-10 06:15:00
12:35 AM,35.6,30.2,81,30.35,10.0,East,6.9,-,N/A,,Clear,100,2013-01-10 06:35:00
12:55 AM,39.2,30.2,70,30.34,10.0,East,9.2,-,N/A,,Clear,100,2013-01-10 06:55:00
2:15 AM,41.0,28.4,61,30.33,10.0,East,6.9,-,N/A,,Clear,100,2013-01-10 08:15:00
2:35 AM,41.0,28.4,61,30.32,10.0,East,6.9,-,N/A,,Clear,100,2013-01-10 08:35:00
2:55 AM,41.0,28.4,61,30.31,10.0,East,8.1,-,N/A,,Clear,100,2013-01-10 08:55:00
3:15 AM,41.0,28.4,61,30.30,10.0,East,9.2,-,N/A,,Clear,100,2013-01-10 09:15:00
3:35 AM,41.0,28.4,61,30.29,10.0,ESE,8.1,-,N/A,,Clear,110,2013-01-10 09:35:00
3:55 AM,42.8,28.4,57,30.28,10.0,ESE,8.1,-,N/A,,Light Drizzle,110,2013-01-10 09:55:00
4:15 AM,42.8,26.6,53,30.27,10.0,ESE,9.2,-,N/A,Rain,Light Rain,110,2013-01-10 10:15:00
4:35 AM,42.8,26.6,53,30.25,10.0,East,8.1,16.1,N/A,,Light Drizzle,100,2013-01-10 10:35:00
4:55 AM,42.8,28.4,57,30.24,10.0,East,9.2,-,N/A,,Overcast,100,2013-01-10 10:55:00
5:15 AM,42.8,28.4,57,30.23,10.0,East,10.4,-,N/A,,Overcast,100,2013-01-10 11:15:00
5:35 AM,42.8,28.4,57,30.22,10.0,ESE,10.4,16.1,N/A,,Overcast,110,2013-01-10 11:35:00
6:15 AM,41.0,30.2,65,30.21,10.0,ESE,10.4,-,N/A,,Overcast,110,2013-01-10 12:15:00
6:35 AM,41.0,30.2,65,30.20,10.0,East,10.4,-,N/A,,Overcast,100,2013-01-10 12:35:00
6:55 AM,41.0,30.2,65,30.19,10.0,East,13.8,18.4,N/A,,Overcast,100,2013-01-10 12:55:00
7:15 AM,39.2,32.0,75,30.19,10.0,East,11.5,19.6,N/A,Rain,Light Rain,100,2013-01-10 13:15:00
7:35 AM,37.4,33.8,87,30.18,3.0,East,9.2,-,N/A,Rain,Light Rain,100,2013-01-10 13:35:00
7:55 AM,37.4,33.8,87,30.18,2.0,ESE,9.2,-,N/A,Rain,Light Rain,110,2013-01-10 13:55:00
8:15 AM,37.4,35.6,93,30.17,2.5,East,12.7,18.4,N/A,Rain,Light Rain,100,2013-01-10 14:15:00
8:35 AM,37.4,35.6,93,30.17,2.5,East,11.5,-,N/A,Rain,Light Rain,100,2013-01-10 14:35:00
9:15 AM,37.4,35.6,93,30.12,10.0,East,13.8,17.3,N/A,,Overcast,100,2013-01-10 15:15:00
9:35 AM,37.4,35.6,93,30.10,10.0,East,13.8,18.4,N/A,,Overcast,100,2013-01-10 15:35:00
9:55 AM,37.4,35.6,93,30.10,10.0,East,10.4,-,N/A,,Overcast,100,2013-01-10 15:55:00
10:15 AM,37.4,37.4,100,30.09,10.0,ESE,10.4,16.1,N/A,,Overcast,110,2013-01-10 16:15:00
10:35 AM,37.4,37.4,100,30.07,5.0,East,10.4,-,N/A,,Overcast,100,2013-01-10 16:35:00
10:55 AM,37.4,37.4,100,30.05,2.5,East,9.2,-,N/A,,Light Drizzle,100,2013-01-10 16:55:00
11:15 AM,37.4,37.4,100,30.02,1.8,East,10.4,-,N/A,Rain,Light Rain,100,2013-01-10 17:15:00
11:35 AM,37.4,37.4,100,30.01,2.0,ESE,8.1,-,N/A,Rain,Rain,110,2013-01-10 17:35:00
11:55 AM,39.2,37.4,93,29.99,3.0,East,8.1,-,N/A,,Drizzle,100,2013-01-10 17:55:00
12:15 PM,39.2,37.4,93,29.97,4.0,East,6.9,-,N/A,Rain,Rain,100,2013-01-10 18:15:00
12:35 PM,39.2,39.2,100,29.95,4.0,East,8.1,-,N/A,Rain,Light Rain,100,2013-01-10 18:35:00
12:55 PM,41.0,39.2,93,29.94,5.0,ESE,6.9,-,N/A,Rain,Light Rain,110,2013-01-10 18:55:00
1:15 PM,41.0,39.2,93,29.93,10.0,ESE,6.9,-,N/A,,Overcast,110,2013-01-10 19:15:00
1:35 PM,41.0,41.0,100,29.91,7.0,ESE,6.9,-,N/A,,Overcast,110,2013-01-10 19:35:00
1:55 PM,41.0,41.0,100,29.90,1.8,ESE,5.8,-,N/A,,Overcast,120,2013-01-10 19:55:00
2:15 PM,41.0,41.0,100,29.89,0.8,ESE,6.9,-,N/A,,Overcast,110,2013-01-10 20:15:00
2:35 PM,41.0,41.0,100,29.89,0.5,ESE,3.5,-,N/A,Fog,Fog,110,2013-01-10 20:35:00
2:55 PM,41.0,41.0,100,29.89,0.2,ESE,3.5,-,N/A,Fog,Fog,120,2013-01-10 20:55:00
3:15 PM,42.8,41.0,93,29.87,0.8,East,5.8,-,N/A,Rain,Rain,100,2013-01-10 21:15:00
3:35 PM,42.8,42.8,100,29.87,0.8,ESE,3.5,-,N/A,,Light Drizzle,110,2013-01-10 21:35:00
3:55 PM,42.8,42.8,100,29.87,0.5,ESE,3.5,-,N/A,Rain,Rain,110,2013-01-10 21:55:00
4:15 PM,42.8,42.8,100,29.86,0.2,East,4.6,-,N/A,Fog,Fog,90,2013-01-10 22:15:00
4:35 PM,42.8,42.8,100,29.86,0.2,Calm,Calm,-,N/A,Fog,Fog,0,2013-01-10 22:35:00
4:55 PM,42.8,42.8,100,29.87,0.2,Calm,Calm,-,N/A,Fog,Fog,0,2013-01-10 22:55:00
5:15 PM,42.8,42.8,100,29.85,0.2,Calm,Calm,-,N/A,Fog,Fog,0,2013-01-10 23:15:00
5:35 PM,42.8,42.8,100,29.85,0.2,East,5.8,-,N/A,Fog,Fog,100,2013-01-10 23:35:00
5:55 PM,42.8,42.8,100,29.85,0.2,Calm,Calm,-,N/A,Rain,Light Rain,0,2013-01-10 23:55:00
6:15 PM,42.8,42.8,100,29.84,0.5,East,3.5,-,N/A,Fog,Fog,90,2013-01-11 00:15:00
6:35 PM,42.8,42.8,100,29.83,1.2,Calm,Calm,-,N/A,,Drizzle,0,2013-01-11 00:35:00
6:55 PM,42.8,42.8,100,29.83,1.0,Calm,Calm,-,N/A,Rain,Heavy Rain,0,2013-01-11 00:55:00
7:15 PM,42.8,42.8,100,29.83,1.2,Calm,Calm,-,N/A,,Drizzle,0,2013-01-11 01:15:00
7:35 PM,42.8,42.8,100,29.82,1.0,Calm,Calm,-,N/A,,Overcast,0,2013-01-11 01:35:00
7:55 PM,42.8,42.8,100,29.80,1.2,East,3.5,-,N/A,,Overcast,100,2013-01-11 01:55:00
8:15 PM,42.8,42.8,100,29.78,0.2,ENE,4.6,-,N/A,Fog,Fog,70,2013-01-11 02:15:00
8:35 PM,42.8,42.8,100,29.78,0.2,Calm,Calm,-,N/A,Fog,Fog,0,2013-01-11 02:35:00
8:55 PM,42.8,42.8,100,29.77,0.2,ESE,3.5,-,N/A,Fog,Fog,120,2013-01-11 02:55:00
9:15 PM,44.6,44.6,100,29.76,0.2,SE,3.5,-,N/A,Fog,Fog,130,2013-01-11 03:15:00
9:35 PM,44.6,44.6,100,29.77,0.2,SSE,8.1,-,N/A,Fog,Fog,160,2013-01-11 03:35:00
9:55 PM,44.6,44.6,100,29.76,0.2,SSE,3.5,-,N/A,Fog,Fog,160,2013-01-11 03:55:00
10:15 PM,44.6,44.6,100,29.75,0.2,Calm,Calm,-,N/A,Fog,Fog,0,2013-01-11 04:15:00
10:35 PM,44.6,44.6,100,29.74,0.2,Calm,Calm,-,N/A,Fog,Fog,0,2013-01-11 04:35:00
10:55 PM,44.6,44.6,100,29.74,0.2,SE,3.5,-,N/A,Fog,Fog,140,2013-01-11 04:55:00
11:15 PM,44.6,44.6,100,29.74,0.2,Calm,Calm,-,N/A,Fog,Fog,0,2013-01-11 05:15:00
11:35 PM,46.4,46.4,100,29.74,1.2,South,4.6,-,N/A,,Mist,190,2013-01-11 05:35:00
11:55 PM,46.4,46.4,100,29.74,3.0,Calm,Calm,-,N/A,,Overcast,0,2013-01-11 05:55:00